Terminal Aerodrome Forecast
Issued by NWS Quad Cities IA IL

Home | Current Version | Previous Version | Text Only | Print | Product List | Glossary On
Versions: 1 2 3 4 5 6 7 8 9 10 11 12 13 14 15 16 17 18 19 20 21 22 23 24 25 26 27 28 29 30 31 32 33
000
FTUS43 KDVN 240743 AAC
TAFMLI
TAF AMD
KMLI 240743Z 2408/2506 09009KT P6SM BKN007
     FM241300 11006KT P6SM OVC010
     FM241500 12009KT P6SM SCT035 SCT100=

USA.gov is the U.S. government's official web portal to all federal, state and local government web resources and services.